FW3581 Weather Reports


Display with metric or nautical units.
time (UTC)temp
F
wind
direction
speed
MPH
gust
MPH
rain 1hr
in
rain 24hr
in
rain mn
in
humidity
%
barometer
mb
20200329183118 39 109 7.0 15.0 0.00 0.00 0.00 39 1036.7
20200329181604 39 94 6.0 15.0 0.00 0.00 0.00 39 1036.6
20200329180121 40 117 8.0 18.0 0.00 0.00 0.00 37 1036.4
20200329174630 40 34 8.0 17.0 0.00 0.00 0.00 34 1036.3
20200329173134 41 95 9.0 22.0 0.00 0.00 0.00 31 1036.1
20200329171548 42 107 9.0 21.0 0.00 0.00 0.00 27 1035.8
20200329170051 43 21 9.0 22.0 0.00 0.00 0.00 27 1035.8
20200329164607 44 95 8.0 15.0 0.00 0.00 0.00 26 1035.3
20200329163045 44 57 8.0 16.0 0.00 0.00 0.00 25 1035.2
20200329161602 44 28 10.0 19.0 0.00 0.00 0.00 28 1035.1
20200329160052 44 97 11.0 19.0 0.00 0.00 0.00 27 1034.9
20200329154619 45 50 9.0 18.0 0.00 0.00 0.00 26 1034.9
20200329153115 45 133 9.0 21.0 0.00 0.00 0.00 28 1034.8
20200329151531 46 118 9.0 22.0 0.00 0.00 0.00 25 1034.7
20200329150025 46 126 9.0 21.0 0.00 0.00 0.00 25 1034.5
20200329144534 45 69 9.0 20.0 0.00 0.00 0.00 26 1034.5
20200329143021 46 59 11.0 21.0 0.00 0.00 0.00 28 1034.4
20200329141549 46 21 11.0 27.0 0.00 0.00 0.00 28 1034.4
20200329140013 47 83 11.0 21.0 0.00 0.00 0.00 29 1034.3
20200329134620 47 84 9.0 19.0 0.00 0.00 0.00 26 1034.3
20200329133010 47 107 9.0 18.0 0.00 0.00 0.00 26 1034.2
20200329131529 46 95 9.0 24.0 0.00 0.00 0.00 25 1034.1
20200329130006 47 89 8.0 21.0 0.00 0.00 0.00 27 1033.8
20200329124520 47 128 11.0 23.0 0.00 0.00 0.00 25 1033.9
20200329123249 48 28 9.0 19.0 0.00 0.00 0.00 27 1033.9
20200329121711 47 121 10.0 19.0 0.00 0.00 0.00 27 1034.0
20200329120140 46 28 10.0 25.0 0.00 0.00 0.00 28 1033.7
20200329114623 47 153 12.0 25.0 0.00 0.00 0.00 28 1033.8
20200329113254 46 118 11.0 21.0 0.00 0.00 0.00 30 1034.0
20200329111739 45 24 13.0 24.0 0.00 0.00 0.00 31 1033.9
20200329110119 48 100 14.0 24.0 0.00 0.00 0.00 26 1033.8
20200329104651 47 98 10.0 18.0 0.00 0.00 0.00 25 1033.8
20200329103201 45 67 11.0 23.0 0.00 0.00 0.00 27 1033.6
20200329101557 48 41 8.0 23.0 0.00 0.00 0.00 28 1033.5
20200329100114 45 134 9.0 21.0 0.00 0.00 0.00 32 1033.3
20200329094659 44 125 11.0 26.0 0.00 0.00 0.00 32 1033.3
20200329093218 46 138 7.0 24.0 0.00 0.00 0.00 34 1033.1
20200329091651 45 19 12.0 25.0 0.00 0.00 0.00 34 1033.1
20200329090221 44 355 9.0 24.0 0.00 0.00 0.00 38 1033.1
20200329084639 44 42 12.0 25.0 0.00 0.00 0.00 38 1033.1
20200329083224 46 97 9.0 24.0 0.00 0.00 0.00 42 1032.7
20200329080203 45 48 10.0 18.0 0.00 0.00 0.00 45 1032.5
20200329074626 44 67 6.0 14.0 0.00 0.00 0.00 47 1032.3
20200329073107 43 87 8.0 17.0 0.00 0.00 0.00 50 1032.0
20200329071557 43 89 9.0 17.0 0.00 0.00 0.00 50 1031.8
20200329070112 43 12 6.0 16.0 0.00 0.00 0.00 51 1031.7
20200329064611 43 65 8.0 17.0 0.00 0.00 0.00 52 1031.6
20200329063121 42 46 5.0 17.0 0.00 0.00 0.00 52 1031.3
20200329061546 40 88 6.0 13.0 0.00 0.00 0.00 54 1031.0
20200329060126 40 319 4.0 14.0 0.00 0.00 0.00 56 1030.7
20200329054751 40 40 5.0 12.0 0.00 0.00 0.00 56 1030.5
20200329053038 40 80 3.0 14.0 0.00 0.00 0.00 56 1030.4
20200329051609 40 88 8.0 17.0 0.00 0.00 0.00 55 1030.4
20200329050045 40 130 5.0 12.0 0.00 0.00 0.00 52 1030.4
20200329044539 40 222 5.0 12.0 0.00 0.00 0.00 54 1030.2
20200329043043 40 48 4.0 13.0 0.00 0.00 0.00 57 1030.2
20200329041601 40 61 3.0 13.0 0.00 0.00 0.00 56 1030.2
20200329040044 40 59 3.0 14.0 0.00 0.00 0.00 53 1030.1
20200329034534 40 30 7.0 17.0 0.00 0.00 0.00 54 1030.1
20200329033030 40 66 6.0 15.0 0.00 0.00 0.00 55 1030.2
20200329031605 40 94 9.0 18.0 0.00 0.00 0.00 53 1030.1
20200329030048 40 46 7.0 22.0 0.00 0.00 0.00 55 1030.2
20200329024542 41 57 8.0 18.0 0.00 0.00 0.00 56 1030.2
20200329023050 41 40 7.0 16.0 0.00 0.00 0.00 56 1030.1
20200329021522 41 69 7.0 16.0 0.00 0.00 0.00 57 1030.3
20200329020107 41 84 5.0 16.0 0.00 0.00 0.00 54 1030.2
20200329014520 42 17 7.0 18.0 0.00 0.00 0.00 53 1030.2
20200329013052 42 53 9.0 19.0 0.00 0.00 0.00 50 1030.3
20200329011540 42 148 7.0 17.0 0.00 0.00 0.00 48 1030.2
20200329010115 42 238 5.0 13.0 0.00 0.00 0.00 49 1030.3
20200329004528 41 63 5.0 12.0 0.00 0.00 0.00 49 1030.5
20200329003011 41 14 5.0 11.0 0.00 0.00 0.00 48 1030.5
20200329001517 41 34 5.0 16.0 0.00 0.00 0.00 48 1030.7
20200329000010 41 77 5.0 14.0 0.00 0.00 0.00 48 1030.7
20200328234541 41 69 5.0 11.0 0.00 0.00 0.00 51 1030.9
20200328233027 42 138 7.0 15.0 0.00 0.00 0.00 49 1030.7
20200328231505 42 64 9.0 15.0 0.00 0.00 0.00 49 1030.7
20200328230010 42 71 7.0 18.0 0.00 0.00 0.00 48 1030.6
20200328224502 42 17 7.0 19.0 0.00 0.00 0.00 45 1030.5
20200328223124 42 56 8.0 17.0 0.00 0.00 0.00 43 1030.3
20200328221655 43 232 8.0 25.0 0.00 0.00 0.00 47 1030.4
20200328220129 43 21 6.0 17.0 0.00 0.00 0.00 51 1030.3
20200328214811 43 315 5.0 12.0 0.00 0.00 0.00 52 1030.2
20200328213243 42 43 5.0 14.0 0.00 0.00 0.00 54 1030.3
20200328211620 42 355 6.0 17.0 0.00 0.00 0.00 54 1030.2
20200328210124 43 85 8.0 16.0 0.00 0.00 0.00 54 1030.0
20200328204606 43 89 5.0 12.0 0.00 0.00 0.00 55 1029.8
20200328203135 43 88 6.0 14.0 0.00 0.00 0.00 54 1029.7
20200328201633 43 28 8.0 19.0 0.00 0.00 0.00 53 1029.5
20200328200136 44 309 7.0 15.0 0.00 0.00 0.00 52 1029.5
20200328194554 44 44 8.0 20.0 0.00 0.00 0.00 52 1029.4
20200328193127 44 57 5.0 15.0 0.00 0.00 0.00 55 1029.3
20200328191616 44 97 7.0 15.0 0.00 0.00 0.00 55 1029.1
20200328190147 44 53 6.0 16.0 0.00 0.00 0.00 56 1028.9
20200328184539 44 66 5.0 15.0 0.00 0.00 0.00 56 1028.8